Вернуться в каталог

ELECTRON KICK STAGE R/B

АктивенVLEO
NORAD 53104·ROCKET BODY·🇺🇸 United States

Запущен Jul 13, 2022 с Rocket Lab Launch Complex 1

Loading…

Ближайшие Пролёты (ближайшие 24 часа)

TLE

СвежийSource: Space-Track

Эпоха: Sep 14, 2026, 12:32 UTC

1 53104U 22079C   26257.52282106  .00003815  00000-0  30016-3 0  9991
2 53104  40.0128  75.1179 0004949 214.8778 145.1692 15.01600026128801

Отслеживайте ELECTRON KICK STAGE R/B в реальном времени с AllMySat

Download on the App Store